Regional Weather Roundup
Issued by NWS Northern Indiana

Home | Current Version | Previous Version | Graphics & Text | Print | Product List | Glossary On
Versions: 1 2 3 4 5 6 7 8 9 10 11 12 13 14 15 16 17 18 19 20 21 22 23 24 25 26 27 28 29 30 31 32 33 34 35 36 37 38 39 40 41 42 43 44 45 46 47 48 49 50
000
ASUS43 KIWX 201700
RWRIWX

KIWX WEATHER ROUNDUP
NATIONAL WEATHER SERVICE NORTHERN INDIANA
1200 PM EST FRI JAN 20 2017

NOTE: "FAIR" INDICATES FEW OR NO CLOUDS BELOW 12,000 FEET WITH NO
SIGNIFICANT WEATHER AND/OR OBSTRUCTIONS TO VISIBILITY.

* THESE STATIONS ARE NOT UNDER NWS QUALITY CONTROL. THEY ALSO MAY NOT
  REPORT WEATHER SUCH AS PRECIPITATION OR FOG.

INZ001>027-201800-
NORTHERN INDIANA

CITY           SKY/WX    TMP DP  RH WIND       PRES   REMARKS
GARY*          CLOUDY    41  41 100 SW3       29.67R FOG
SOUTH BEND     CLOUDY    39  39 100 E3        29.64F FOG
ELKHART*       CLOUDY    39  37  93 CALM      29.66R FOG
GOSHEN         CLOUDY    40  37  89 CALM      29.65R FOG
FORT WAYNE     CLOUDY    46  43  89 SW10      29.66R FOG
PERU/GRISSOM   CLOUDY    48  48 100 SW12      29.65S

$$
INZ028>050-201800-
CENTRAL INDIANA

CITY           SKY/WX    TMP DP  RH WIND       PRES   REMARKS
LAFAYETTE      CLOUDY    50  48  93 SW8       29.67S
KOKOMO*        CLOUDY    48  47  96 SW14      29.67F
MUNCIE*        CLOUDY    54  50  86 SW10      29.66F
INDIANAPOLIS   CLOUDY    53  51  93 SW12      29.69F

$$
MIZ043>046-050>051-056>058-064>065-071>073-077>080-201800-
SOUTHWEST LOWER MICHIGAN

CITY           SKY/WX    TMP DP  RH WIND       PRES   REMARKS
BATTLE CREEK   CLOUDY    36  35  96 E5        29.65F FOG
BENTON HARBOR  FOG       40  37  89 SE3       29.66S VSB 1
COLDWATER*     CLOUDY    38  38 100 E3        29.64S FOG
HILLSDALE*     FOG       36  36 100 CALM      29.62S VSB 1
HOLLAND        CLOUDY    36  34  92 E7        29.68R
GRAND RAPIDS   CLOUDY    35  33  92 E9        29.66S FOG     WCI  28
KALAMAZOO      FOG       38  35  89 E5        29.66S VSB 1
STURGIS*       CLOUDY    37  37  98 S3        29.65R FOG
THREE RIVERS*  CLOUDY    37  37  99 CALM      29.66S FOG

$$
OHZ001>008-015>018-024>025-201800-
NORTHWEST OHIO

CITY           SKY/WX    TMP DP  RH WIND       PRES   REMARKS
DEFIANCE       CLOUDY    40  39  97 SW5       29.65S FOG
FINDLAY        CLOUDY    51  47  86 SW13      29.64S
TOLEDO EXPRESS FOG       39  39 100 CALM      29.64S VSB 1/2
TOLEDO METCALF FOG       40  40 100 CALM      29.65F VSB 1
LIMA           CLOUDY    50  50 100 SW14      29.65S FOG

$$
AND FOR LAKE MICHIGAN COASTAL AND OPEN LAKE BUOY OBSERVATIONS

STATION/POSITION TEMP    WIND        PRES    VSBY  WAVE
                 AIR SEA DIR/SP/G                  HT/PER
                 (F)     (DEG/KT/KT) (MB)    (MI)  (FT/S)
CALUMET HARBOR    37     190/  4/  6 1004.5R
MICHIGAN CITY     35      40/  4/  4   N/A
BURNS HARBOR      36      CALM  /  5 1005.4R

$$
&&



USA.gov is the U.S. government's official web portal to all federal, state and local government web resources and services.